#timestamp,LO_Frequency,Hit,StdDev 
1526011215.4,286047003.5,N
1526011235.2,286047002.2,N
1526011255.1,286047001.4,N
1526011256.0,286047001.4,N
1526011275.8,286047000.2,N
1526011295.6,286047000.0,N
1526011315.5,286046998.1,N
1526011335.3,286047002.8,N
1526011355.2,286047000.3,N
1526011375.9,286047000.0,N
1526011395.7,286047000.3,N
1526011415.6,286047002.5,N
1526011435.4,286047003.9,N
1526011455.3,286046999.8,N
1526011475.1,286047002.5,N
1526011476.0,286047002.5,N
1526011495.8,286047000.3,N
1526011515.7,286046999.7,N
1526011535.5,286047004.2,N
1526011555.4,286047002.7,N
1526011575.2,286047000.0,N
1526011595.0,286047002.5,N
1526011595.9,286047002.5,N
1526011615.8,286047001.4,N
1526011635.6,286047001.7,N
1526011655.4,286047006.0,Y
1526011675.3,286047004.3,P
1526011695.1,286047002.8,N
1526011715.9,286047000.1,N
1526011735.7,286047001.5,N
1526011755.5,286047001.0,N
1526011775.4,286047000.9,N
1526011795.2,286047000.9,N
1526011815.0,286047000.9,N
1526011815.9,286047000.9,N
1526011835.8,286047000.4,N
1526011855.6,286047001.4,N
1526011875.5,286047002.5,N
1526011895.3,286046999.8,N
1526011915.1,286047000.3,N
1526011935.9,286047000.1,N
1526011955.7,286047000.9,N
1526011975.5,286046998.7,N
1526011995.4,286046998.4,N
1526012015.2,286047000.5,N
1526012035.1,286046998.6,N
1526012036.0,286046998.6,N
1526012055.8,286046996.7,N
1526012075.6,286046998.4,N
1526012095.5,286046999.9,N
1526012115.3,286047000.0,N
1526012135.1,286047000.2,N
1526012155.9,286047000.9,N
1526012175.7,286047004.3,N
1526012195.6,286047002.2,N
1526012215.4,286047002.3,N
1526012235.2,286047003.0,N
1526012255.1,286047005.9,Y
1526012256.0,286047005.9,P
1526012275.8,286047005.7,N
1526012295.7,286047006.3,N
1526012315.5,286047007.2,Y
1526012335.3,286047001.1,P
1526012355.2,286047001.9,N
1526012375.0,286047002.0,N
1526012375.9,286047002.0,N
1526012395.7,286047005.7,Y
1526012415.6,286047004.0,P
1526012435.4,286047002.3,N
1526012455.3,286047000.1,N
1526012475.1,286047002.5,N
1526012476.0,286047002.5,N
1526012495.8,286047000.5,N
1526012515.7,286047000.4,N
1526012535.5,286047001.0,N
1526012555.3,286046998.6,N
1526012575.2,286046998.6,N
1526012595.0,286046999.7,N
1526012595.9,286046999.7,N
1526012615.8,286046999.8,N
1526012635.6,286047000.7,N
1526012655.4,286046999.9,N
1526012675.3,286047000.3,N
1526012695.1,286046998.7,N
1526012715.9,286046998.2,N
1526012735.7,286047000.7,N
1526012755.5,286047000.6,N
1526012775.4,286047000.0,N
1526012795.2,286047000.6,N
1526012815.0,286047000.2,N
1526012816.0,286047000.2,N
1526012835.8,286047000.4,N
1526012855.6,286046998.5,N
1526012875.5,286047000.7,N
1526012895.3,286047000.3,N
1526012915.1,286046998.2,N
1526012935.9,286046999.5,N
1526012955.7,286046998.4,N
1526012975.6,286046998.2,N
1526012995.4,286046998.9,N
1526013015.2,286047001.0,N
1526013035.1,286047002.5,N
1526013036.0,286047002.5,N
1526013055.8,286047002.4,N
1526013075.7,286047001.2,N
1526013095.5,286046998.3,N
1526013115.3,286046998.5,N
1526013135.2,286046998.5,N
1526013155.9,286046996.8,N
1526013175.7,286046999.5,N
1526013195.6,286046998.0,N
1526013215.4,286046998.2,N
1526013235.3,286046999.3,N
1526013255.1,286046995.0,Y
1526013275.8,286046996.9,P
1526013295.7,286047001.2,N
1526013315.5,286047001.1,N
1526013335.4,286046996.5,N
1526013355.2,286046997.6,N
1526013375.0,286046997.6,N
1526013375.9,286046997.6,N
1526013395.8,286046995.4,N
1526013415.6,286046995.8,N
1526013435.4,286046995.7,N
1526013455.3,286046993.5,Y
1526013475.1,286046995.7,P
1526013495.9,286046995.9,P
1526013515.7,286046999.2,N
1526013535.5,286046996.5,N
1526013555.4,286046997.0,N
1526013575.2,286046997.6,N
1526013595.1,286046995.8,Y
1526013596.0,286046995.8,P
1526013615.8,286046998.9,N
1526013635.6,286046999.0,N
1526013655.5,286047000.8,N
1526013675.3,286046998.7,N
1526013695.1,286046997.3,N
1526013715.9,286046996.9,N
1526013735.7,286046999.3,N
1526013755.6,286046998.3,N
1526013775.4,286046998.6,N
1526013795.2,286047001.2,N
1526013815.1,286046999.7,N
1526013816.0,286046999.7,N
1526013835.8,286047002.0,N
1526013855.7,286047001.2,N
1526013875.5,286047000.9,N
1526013895.3,286047000.7,N
1526013915.2,286047002.8,N
1526013935.0,286047002.1,N
1526013935.9,286047002.1,N
1526013955.8,286046998.5,N
1526013975.6,286047002.8,N
1526013995.4,286047002.4,N
1526014015.3,286047000.2,N
1526014035.1,286046999.6,N
1526014055.9,286046996.5,N
1526014075.7,286046997.0,N
1526014095.5,286046999.6,N
1526014115.4,286046999.0,N
1526014135.2,286047000.2,N
1526014155.0,286046999.8,N
1526014156.0,286046999.8,N
1526014175.8,286047000.7,N
1526014195.6,286047000.7,N
1526014215.5,286046998.4,N
1526014235.3,286046998.9,N
1526014255.1,286047001.2,N
1526014275.9,286047001.1,N
1526014295.7,286047001.1,N
1526014315.6,286046999.9,N
1526014335.4,286047002.8,N
1526014355.2,286047000.4,N
1526014375.1,286046998.6,N
1526014376.0,286046998.6,N
1526014395.8,286047000.1,N
1526014415.7,286046999.8,N
1526014435.5,286046998.2,N
1526014455.3,286046998.2,N
1526014475.2,286047000.3,N
1526014495.0,286046998.2,N
1526014495.9,286046998.2,N
1526014515.7,286047000.1,N
1526014535.6,286047004.0,N
1526014555.4,286047002.5,N
1526014575.3,286047002.6,N
1526014595.1,286046998.1,N
1526014596.0,286046998.1,N
1526014615.8,286047002.8,N
1526014635.7,286047001.8,N
1526014655.5,286047002.2,N
1526014675.4,286047000.1,N
1526014695.2,286046998.4,N
1526014715.0,286046999.0,N
1526014715.9,286046999.0,N
1526014735.8,286046997.0,N
1526014755.6,286046998.9,N
1526014775.4,286046998.9,N
1526014795.3,286046997.7,N
